Notices

What's New in latest Release from April 7th, 2021:

- Updated Glossary, including Speed of Maximum Gust, and Total Hourly Precipitation

- Updated national and regional climate services offices contacts and prices information

- Addition of station inventory lists for 1981-2010, 1971-2000, and 1961-1990 Normals.

If you haven't already, please take our survey and provide feedback about our website: https://eccc.sondage-survey.ca/f/LanguageSelection.aspx?s=442ca660-fcf1-47c0-95a9-59707d6fd709

Hourly Data Report for April 06, 2017

CLYDE RIVER A
NUNAVUT

70°29'09.000" N
68°31'01.000" W
26.50 m
2400804
71090
YCY

Download Data

Hourly Data (April 2017)
Hourly Data Report for April 6, 2017
TIME
LST
Temp Definition
°C
Dew Point Definition
°C
Rel Hum Definition
%
Precip. Amount Definition
mm

Wind Dir Definition
10's deg

Wind Spd Definition
km/h
Visibility Definition
km
Stn Press Definition
kPa
Hmdx Definition


Wind Chill Definition


Weather Definition


00:00 -21.6 -23.9 82 0.0 5 5 16.1 101.53   -26 LegendNANA
01:00 -21.6 -23.8 83 0.0 5 5 16.1 101.55   -26 LegendNANA
02:00 -22.0 -24.3 82 0.0 7 9 16.1 101.57   -29 LegendNANA
03:00 -21.8 -23.6 86 0.0 6 8 16.1 101.57   -28 LegendNANA
04:00 -23.5 -25.6 83 0.0 2 5 16.1 101.60   -28 LegendNANA
05:00 -22.6 -24.3 86 0.0 5 8 16.1 101.60   -29 LegendNANA
06:00 -22.3 -23.8 88 0.0 5 8 16.1 101.59   -29 LegendNANA
07:00 -21.9 -23.7 86 0.0 3 5 14.5 101.60   -26 LegendNANA
08:00 -20.7 -22.6 85 0.0 5 8 16.1 101.59   -27 LegendNANA
09:00 -18.9 -21.0 84 0.0   0 16.1 101.60     LegendNANA
10:00 -17.6 -19.6 85 0.0 8 5 16.1 101.57   -22 LegendNANA
11:00 -16.9 -18.7 86 0.0 4 5 16.1 101.54   -21 LegendNANA
12:00 -16.0 -17.9 85 0.0 8 4 16.1 101.52   -19 LegendNANA
13:00 -15.6 -17.3 87 0.0 10 8 16.1 101.53   -21 LegendNANA
14:00 -15.5 -17.6 84 0.0 9 5 16.1 101.53   -19 LegendNANA
15:00 -15.7 -17.7 85 0.0 10 8 16.1 101.53   -21 LegendNANA
16:00 -16.4 -18.3 85 0.0 LegendMM 4 16.1 101.52   -19 LegendNANA
17:00 -16.7 -18.2 88 0.0 8 8 16.1 101.49   -22 LegendNANA
18:00 -17.8 -19.0 90 0.0 5 8 16.1 101.47   -24 LegendNANA
19:00 -19.5 -20.9 89 0.0 4 5 16.1 101.46   -24 LegendNANA
20:00 -21.5 -23.3 86 0.0 4 5 16.1 101.42   -26 LegendNANA
21:00 -21.0 -22.5 88 0.0 3 5 16.1 101.39   -25 LegendNANA
22:00 -21.8 -23.6 85 0.0 LegendMM 4 16.1 101.38   -25 LegendNANA
23:00 -19.8 -21.4 87 0.0 4 5 16.1 101.36   -24 LegendNANA

Notes on Data Quality.

Legend

  • E = Estimated
  • M = Missing
  • NA = Not Available*
  • [empty] = Indicates an unobserved value
Date modified: